Location: Sungai Bunut
(2.6333°N, 113.7333°E)
Time: 10:51:38
(UTC+00:00)

Transit 2A Rocket - Pass Details

Date: 07 December 2023
Orbit: 590 x 905 km, 66.7° (Epoch: 01 March)

Event Time Altitude Azimuth Distance (km) Brightness Sun altitude
Rises 11:40:45 0° 205° (SSW) 3,341 9.1 -20.5°
Reaches altitude 10° 11:43:18 10° 208° (SSW) 2,360 8.2 -21.0°
Maximum altitude 11:48:39 64° 289° (WNW) 816 5.2 -22.3°
Enters shadow 11:50:57 31° 1° (N) 1,237 5.8 -22.8°
Drops below altitude 10° 11:53:30 10° 11° (N) 2,142 - -23.4°
Sets 11:55:44 0° 14° (NNE) 3,009 - -23.9°
